sat.trackr.live / text

‹ back to catalog

STARLINK-30969

NORAD 58438 · 2023-183B

PAYLOAD ACTIVE UNKNOWN

§ Identity

Operator
Country
US
Launch date
2023-11-28
Launch site
AFETR
Launch vehicle
Mass (kg)
RCS (m²)

Purposes: comms

External: N2YO · Heavens-Above · Gunter

§ Orbital elements

Epoch: 2026-05-24T20:42:38.647584Z

Period
94.27 min
Inclination
42.9991°
Eccentricity
0.0001454
Mean motion
15.27588452 rev/d
Perigee alt
482.0 km
Apogee alt
484.0 km
Semi-major
6,861.2 km
B*
6.3112e-4
RAAN
331.4719°
Arg perigee
270.9160°
Mean anomaly
89.1525°
Rev number
13,838

§ Raw data

STARLINK-309691 58438U 23183B   26144.86294731  .00017150  00000+0  63112-3 0  99912 58438  42.9991 331.4719 0001454 270.9160  89.1525 15.27588452138381

JSON: /api/v1/satellites/58438 · /tle

For live sub-satellite position, see the globe view (requires WebGL).

§ Visibility from observer

Set your observer location to see the next 7 days of passes ≥ 10°. The values pass through the URL so the page stays shareable.

No JS? Fill the form by hand. The geolocation button needs JavaScript.